Location: Avon
(37.7514°N, 90.2235°W)
Time: 12:52:27
(UTC+00:00)

Explorer 11/Cluster Stage 4 - All Passes

Search period start: 09 November 2024 00:00
Search period end: 19 November 2024 00:00
Orbit: 464 x 1205 km, 28.8° (Epoch: 08 November)

Date Brightness Start Highest point End Pass type
(mag) Time Alt. Az. Time Alt. Az. Time Alt. Az.
09 Nov - 12:48:05 10° SW 12:50:40 18° S 12:53:11 10° SE daylight
09 Nov - 14:35:03 10° SW 14:37:41 19° S 14:40:26 10° SE daylight
09 Nov - 16:23:37 10° SSW 16:24:45 11° SSW 16:25:56 10° S daylight
10 Nov - 10:43:10 10° S 10:44:02 11° SSE 10:44:54 10° SSE visible
10 Nov - 12:28:23 10° SW 12:31:07 19° S 12:33:44 10° SE daylight
10 Nov - 14:15:35 10° SW 14:18:08 18° S 14:20:45 10° SE daylight
11 Nov - 10:22:39 10° S 10:24:26 12° SSE 10:26:07 10° SE visible
11 Nov - 12:08:37 10° SW 12:11:32 20° S 12:14:17 10° SE visible
11 Nov - 13:56:02 10° SW 13:58:35 18° S 14:01:06 10° SE daylight
12 Nov - 10:02:21 10° SSW 10:04:47 14° SSE 10:07:02 10° SE visible
12 Nov - 11:48:47 10° SW 11:51:57 21° S 11:54:51 10° SE visible
12 Nov - 13:36:27 10° SW 13:38:59 18° S 13:41:28 10° SE daylight
13 Nov - 09:42:06 10° SSW 09:45:07 16° SSE 09:47:51 10° SE visible
13 Nov - 11:28:55 10° SW 11:32:20 23° S 11:35:24 10° SE visible
13 Nov - 13:16:47 10° SW 13:19:23 17° SSW 13:21:52 10° SSE daylight
14 Nov - 09:21:51 10° SSW 09:25:25 18° SSE 09:28:34 10° SE visible
14 Nov - 11:08:58 10° SW 11:12:42 24° S 11:15:57 10° SE visible
14 Nov - 12:57:02 10° SW 12:59:45 18° SSW 13:02:17 10° SSE daylight
15 Nov - 09:01:37 10° SW 09:05:41 20° SSE 09:09:14 10° ESE visible
15 Nov - 10:48:58 10° WSW 10:53:01 26° S 10:56:30 10° SE visible
15 Nov - 12:37:14 10° WSW 12:40:05 18° SSW 12:42:43 10° SSE daylight
16 Nov - 06:56:26 10° S 06:58:24 11° SSE 07:00:17 10° SE night (unlit)
16 Nov - 08:41:21 10° SW 08:45:54 23° S 08:49:49 10° ESE visible
16 Nov - 10:28:55 10° WSW 10:33:18 27° S 10:37:01 10° ESE visible
16 Nov - 12:17:21 10° WSW 12:20:24 18° SSW 12:23:09 10° SSE visible
17 Nov - 06:35:30 10° S 06:38:31 13° SSE 06:41:21 10° SE night (unlit)
17 Nov - 08:21:04 10° SW 08:26:06 25° S 08:30:22 10° ESE night (unlit)
17 Nov - 10:08:49 10° WSW 10:13:32 29° S 10:17:31 10° ESE visible
17 Nov - 11:57:25 10° WSW 12:00:40 19° SSW 12:03:35 10° SSE visible
18 Nov - 06:14:48 10° S 06:18:35 15° SSE 06:22:06 10° SE night (unlit)
18 Nov - 08:00:47 10° SW 08:06:14 27° S 08:10:51 10° ESE night (unlit)
18 Nov - 09:48:41 10° WSW 09:53:45 31° S 09:57:58 10° ESE visible
18 Nov - 11:37:25 10° WSW 11:40:55 19° SSW 11:44:00 10° SSE visible
